EW3232 Weather Reports


Display with metric or nautical units.
time (UTC)temp
F
wind
direction
speed
MPH
gust
MPH
rain 1hr
in
rain 24hr
in
rain mn
in
humidity
%
barometer
mb
20260831050035 62 286 1.0 4.0 0.00 0.00 0.00 79 1018.6
20260831044627 63 271 2.0 6.0 0.00 0.00 0.00 80 1018.5
20260831043015 62 265 3.0 6.0 0.00 0.00 0.00 82 1018.5
20260831041516 62 271 2.0 4.0 0.00 0.00 0.00 81 1018.5
20260831040040 62 270 2.0 4.0 0.00 0.00 0.00 80 1018.5
20260831034531 62 260 2.0 4.0 0.00 0.00 0.00 80 1018.3
20260831033019 62 269 4.0 6.0 0.00 0.00 0.00 80 1018.2
20260831031540 62 300 1.0 4.0 0.00 0.00 0.00 79 1018.2
20260831030036 62 269 1.0 4.0 0.00 0.00 0.00 78 1018.1
20260831024522 62 291 0.0 3.0 0.00 0.00 0.00 77 1018.0
20260831023017 63 264 2.0 3.0 0.00 0.00 0.00 76 1018.0
20260831021548 63 253 0.0 2.0 0.00 0.00 0.00 72 1018.1
20260831020035 63 281 3.0 4.0 0.00 0.00 0.00 74 1018.1
20260831014611 63 257 0.0 4.0 0.00 0.00 0.00 71 1018.2
20260831013130 64 256 0.0 3.0 0.00 0.00 0.00 70 1018.2
20260831011645 64 259 2.0 3.0 0.00 0.00 0.00 69 1017.9
20260831010133 64 271 1.0 6.0 0.00 0.00 0.00 70 1017.9
20260831004545 64 285 1.0 3.0 0.00 0.00 0.00 69 1017.9
20260831003038 64 264 1.0 4.0 0.00 0.00 0.00 68 1017.9
20260831001644 65 263 4.0 7.0 0.00 0.00 0.00 66 1017.9
20260831000150 65 277 5.0 7.0 0.00 0.00 0.00 67 1018.0
20260830234548 64 264 2.0 4.0 0.00 0.00 0.00 68 1018.1
20260830233118 65 264 1.0 4.0 0.00 0.00 0.00 68 1018.1
20260830231601 65 276 1.0 3.0 0.00 0.00 0.00 68 1018.2
20260830230100 66 234 0.0 2.0 0.00 0.00 0.00 69 1018.3
20260830224531 66 271 0.0 3.0 0.00 0.00 0.00 71 1018.1
20260830223110 66 202 0.0 2.0 0.00 0.00 0.00 72 1018.2
20260830221530 66 208 1.0 4.0 0.00 0.00 0.00 75 1018.2
20260830220011 67 270 0.0 2.0 0.00 0.00 0.00 76 1018.3
20260830214537 67 266 0.0 2.0 0.00 0.00 0.00 76 1018.2
20260830213112 67 268 2.0 4.0 0.00 0.00 0.00 77 1018.2
20260830211612 67 284 2.0 4.0 0.00 0.00 0.00 77 1018.2
20260830210048 68 273 0.0 2.0 0.00 0.00 0.00 76 1018.3
20260830204618 68 256 3.0 6.0 0.00 0.00 0.00 76 1018.2
20260830203135 68 258 2.0 4.0 0.00 0.00 0.00 74 1018.2
20260830201632 68 274 0.0 6.0 0.00 0.00 0.00 72 1018.0
20260830200120 69 271 2.0 4.0 0.00 0.00 0.00 70 1017.9
20260830194634 70 269 1.0 3.0 0.00 0.00 0.00 69 1017.8
20260830193143 71 266 2.0 4.0 0.00 0.00 0.00 67 1017.7
20260830191535 72 272 1.0 4.0 0.00 0.00 0.00 65 1017.5
20260830190013 74 289 3.0 4.0 0.00 0.00 0.00 67 1017.3
20260830184528 75 318 0.0 2.0 0.00 0.00 0.00 66 1017.1
20260830183026 76 9 1.0 2.0 0.00 0.00 0.00 65 1017.0
20260830181517 76 61 1.0 6.0 0.00 0.00 0.00 65 1016.9
20260830180157 77 27 0.0 9.0 0.00 0.00 0.00 62 1016.9
20260830174512 77 311 7.0 10.0 0.00 0.00 0.00 64 1016.9
20260830173021 77 30 4.0 9.0 0.00 0.00 0.00 67 1016.8
20260830171547 78 64 6.0 11.0 0.00 0.00 0.00 68 1016.8
20260830170035 78 27 5.0 16.0 0.00 0.00 0.00 66 1016.8
20260830164544 79 46 6.0 11.0 0.00 0.00 0.00 64 1016.7
20260830163105 80 60 7.0 13.0 0.00 0.00 0.00 63 1016.8
20260830161600 80 44 10.0 13.0 0.00 0.00 0.00 62 1016.7
20260830160032 81 38 6.0 14.0 0.00 0.00 0.00 59 1016.6
20260830154607 81 56 8.0 13.0 0.00 0.00 0.00 57 1016.8
20260830153113 81 38 7.0 16.0 0.00 0.00 0.00 58 1016.9
20260830151648 82 29 5.0 13.0 0.00 0.00 0.00 55 1017.0
20260830150138 82 17 4.0 18.0 0.00 0.00 0.00 54 1017.0
20260830144656 84 22 6.0 15.0 0.00 0.00 0.00 51 1017.0
20260830143014 83 121 4.0 13.0 0.00 0.00 0.00 52 1017.0
20260830141521 84 189 5.0 11.0 0.00 0.00 0.00 51 1017.2
20260830140150 85 98 6.0 14.0 0.00 0.00 0.00 49 1017.4
20260830134659 83 140 9.0 17.0 0.00 0.00 0.00 55 1017.2
20260830133008 82 42 8.0 17.0 0.00 0.00 0.00 60 1017.7
20260830131538 82 81 8.0 16.0 0.00 0.00 0.00 58 1017.8
20260830130141 82 51 9.0 17.0 0.00 0.00 0.00 54 1018.1
20260830124651 82 58 12.0 17.0 0.00 0.00 0.00 53 1018.1
20260830123151 83 157 7.0 14.0 0.00 0.00 0.00 45 1018.2
20260830121655 83 62 6.0 16.0 0.00 0.00 0.00 44 1018.3
20260830120126 83 51 8.0 16.0 0.00 0.00 0.00 44 1018.3
20260830114635 83 141 11.0 17.0 0.00 0.00 0.00 44 1018.4
20260830113137 83 102 5.0 14.0 0.00 0.00 0.00 47 1018.5
20260830111701 83 108 8.0 11.0 0.00 0.00 0.00 47 1018.4
20260830110151 82 141 4.0 14.0 0.00 0.00 0.00 43 1018.6
20260830104503 83 92 9.0 13.0 0.00 0.00 0.00 43 1018.8
20260830103138 82 58 6.0 12.0 0.00 0.00 0.00 42 1018.8
20260830101653 81 117 5.0 9.0 0.00 0.00 0.00 43 1018.8
20260830100004 80 111 4.0 11.0 0.00 0.00 0.00 44 1019.0
20260830094509 80 110 3.0 11.0 0.00 0.00 0.00 42 1019.2
20260830093011 80 83 5.0 11.0 0.00 0.00 0.00 42 1019.2
20260830091520 79 200 3.0 7.0 0.00 0.00 0.00 44 1019.1
20260830084613 78 99 5.0 8.0 0.00 0.00 0.00 45 1019.2
20260830083110 77 144 1.0 5.0 0.00 0.00 0.00 45 1019.2
20260830081613 76 113 3.0 8.0 0.00 0.00 0.00 49 1019.0
20260830080107 75 113 3.0 6.0 0.00 0.00 0.00 58 1019.1
20260830074617 75 100 1.0 3.0 0.00 0.00 0.00 55 1019.1
20260830073129 73 183 0.0 2.0 0.00 0.00 0.00 55 1019.0
20260830071612 72 243 0.0 2.0 0.00 0.00 0.00 50 1018.8
20260830070021 70 319 0.0 1.0 0.00 0.00 0.00 53 1018.8
20260830064532 68 319 0.0 2.0 0.00 0.00 0.00 57 1018.8
20260830063046 65 319 0.0 2.0 0.00 0.00 0.00 62 1018.7
20260830061533 63 273 1.0 2.0 0.00 0.00 0.00 63 1018.7
20260830060044 61 273 1.0 3.0 0.00 0.00 0.00 65 1018.6
20260830054537 61 260 0.0 6.0 0.00 0.00 0.00 65 1018.4
20260830053053 61 279 1.0 4.0 0.00 0.00 0.00 63 1018.3
20260830051552 62 265 3.0 4.0 0.00 0.00 0.00 61 1018.3